Date,TemperatureHighF,TemperatureAvgF,TemperatureLowF,DewpointHighF,DewpointAvgF,DewpointLowF,HumidityHigh,HumidityAvg,HumidityLow,PressureMaxIn,PressureMinIn,WindSpeedMaxMPH,WindSpeedAvgMPH,GustSpeedMaxMPH,PrecipitationSumIn
2014-1-1,51,45,40,49,45,41,100,98,88,30.37,30.15,1,0,5,0.10
2014-1-2,56,49,44,56,49,39,100,99,83,30.16,29.70,5,1,12,0.18
2014-1-3,43,33,25,38,23,19,91,68,44,30.45,29.86,10,2,18,0.19
2014-1-4,47,37,25,41,32,21,92,80,69,30.45,30.21,8,1,10,0.00
2014-1-5,56,47,39,55,46,37,100,97,92,30.20,29.87,2,0,6,0.00
2014-1-6,61,46,25,61,38,10,100,77,48,30.33,29.79,12,2,20,0.04
2014-1-7,30,23,15,18,10,6,86,59,44,30.57,30.33,6,1,10,0.00
2014-1-8,48,31,17,31,23,17,100,77,42,30.62,30.49,3,0,6,0.00
2014-1-9,62,46,32,54,40,27,94,80,59,30.51,30.37,4,1,8,0.00
2014-1-10,72,60,52,70,60,52,100,98,87,30.36,30.07,9,1,12,0.19
2014-1-11,67,63,58,67,63,58,100,100,100,30.07,29.73,7,1,15,0.53
2014-1-12,62,50,36,58,44,36,100,81,48,30.23,29.84,6,1,8,0.54
2014-1-13,66,47,31,53,44,31,100,90,57,30.23,29.96,4,0,8,0.01
2014-1-14,63,53,39,60,52,39,100,97,73,30.02,29.83,4,0,9,0.03
2014-1-15,61,45,31,51,40,31,100,84,50,30.03,29.88,4,0,8,0.03
2014-1-16,48,40,29,38,30,27,96,71,49,30.11,29.95,7,1,9,0.00
2014-1-17,61,43,28,49,38,27,98,84,51,30.13,29.93,6,1,12,0.00
2014-1-18,48,39,29,30,25,22,89,59,40,30.19,29.99,6,1,14,0.00
2014-1-19,60,43,27,43,34,26,98,75,47,30.11,29.99,5,1,15,0.00
2014-1-20,66,46,32,38,35,32,97,70,29,30.06,29.92,8,1,13,0.00
2014-1-21,64,48,35,55,39,29,99,74,45,29.92,29.57,7,2,19,0.00
2014-1-22,43,34,24,30,24,20,88,69,45,30.17,29.86,5,1,10,0.00
2014-1-23,44,32,23,25,21,17,91,66,37,30.39,30.17,4,0,8,0.00
2014-1-24,35,29,17,23,12,5,89,53,31,30.60,30.34,11,1,14,0.00
2014-1-25,56,36,15,43,28,14,100,76,43,30.34,29.82,12,2,21,0.00
2014-1-26,56,44,28,40,34,27,100,71,45,30.05,29.95,8,1,11,0.00
2014-1-27,67,53,39,56,47,38,96,82,63,30.00,29.86,6,1,14,0.00
2014-1-28,54,39,30,54,36,25,100,90,55,30.21,29.98,5,1,13,0.34
2014-1-29,31,28,26,31,28,26,100,100,98,30.38,30.13,0,0,0,0.36
2014-1-30,33,29,25,32,28,25,100,98,94,30.37,30.21,0,0,0,0.02
2014-1-31,57,41,32,47,38,32,100,92,59,30.28,30.16,3,0,5,0.06
2014-2-1,49,45,36,49,45,36,100,100,100,30.19,30.11,3,0,6,0.03
2014-2-2,67,53,45,61,52,45,100,96,79,30.19,30.07,5,0,7,0.01
2014-2-3,75,66,56,70,64,56,100,95,79,30.11,29.99,5,1,10,0.01
2014-2-4,60,52,47,60,52,47,100,96,92,30.26,30.07,5,1,9,0.00
2014-2-5,77,59,47,71,55,41,100,89,62,30.09,29.87,8,1,13,0.05
2014-2-6,56,45,35,43,39,34,100,81,56,30.32,30.10,4,0,9,0.07
2014-2-7,56,43,34,44,40,34,100,89,60,30.35,30.23,3,0,6,0.07
2014-2-8,56,44,37,48,42,37,100,93,69,30.27,30.12,4,0,7,0.12
2014-2-9,65,46,32,51,42,32,100,86,58,30.21,30.02,8,0,9,0.00
2014-2-10,67,50,36,54,46,36,100,86,58,30.14,30.02,4,0,6,0.00
2014-2-11,51,40,33,47,39,33,100,97,81,30.31,30.10,7,1,11,0.06
2014-2-12,34,32,30,34,32,31,100,100,100,30.28,30.17,6,2,13,0.57
2014-2-14,63,54,48,46,42,35,89,69,37,29.88,29.77,8,2,10,0.00
2014-2-15,57,48,33,49,40,31,100,77,48,30.10,29.65,8,2,19,0.11
2014-2-16,64,44,28,40,35,28,100,74,39,30.18,30.07,4,1,9,0.00
2014-2-17,64,46,31,50,42,31,100,86,53,30.29,30.16,5,0,8,0.00
2014-2-18,74,57,43,58,52,43,100,85,55,30.25,30.13,4,0,8,0.00
2014-2-19,80,64,54,58,54,45,100,74,30,30.13,30.01,12,1,17,0.00
2014-2-20,78,64,51,67,60,51,100,90,58,30.18,30.05,12,1,17,0.00
2014-2-21,69,62,49,68,62,49,100,99,94,30.07,29.92,7,1,20,0.30
2014-2-22,70,52,38,49,45,39,100,80,39,30.17,30.04,7,0,7,0.31
2014-2-23,70,54,39,60,51,39,100,90,57,30.11,29.97,3,0,8,0.00
2014-2-24,74,60,48,59,53,48,100,82,41,30.11,29.94,8,1,12,0.00
2014-2-25,75,59,46,59,50,46,100,77,42,30.07,29.90,7,1,11,0.00
2014-2-26,53,48,42,51,48,42,100,99,88,29.91,29.75,2,0,10,0.24
2014-2-27,60,44,34,44,39,34,100,84,43,29.99,29.85,6,1,9,0.24
2014-2-28,60,44,27,47,38,27,100,82,53,30.20,29.98,5,1,12,0.00
2014-3-1,64,49,41,51,46,41,100,88,64,30.32,30.18,4,0,8,0.00
2014-3-2,72,52,35,54,45,35,100,79,50,30.26,30.03,7,1,12,0.00
2014-3-3,70,56,37,64,53,37,100,93,77,30.12,29.84,15,2,16,0.20
2014-3-4,39,36,32,37,32,29,100,88,76,30.25,30.13,7,1,11,0.20
2014-3-5,41,39,36,41,37,31,100,94,82,30.20,30.11,6,1,11,0.05
2014-3-6,41,39,37,41,39,37,100,100,95,30.19,29.84,8,2,13,0.81
2014-3-7,45,42,39,45,42,39,100,100,100,30.06,29.79,7,1,11,0.04
2014-3-8,68,50,32,53,45,32,100,85,56,30.17,30.04,4,0,8,0.04
2014-3-9,76,59,43,54,49,43,100,76,41,30.14,30.01,5,1,11,0.00
2014-3-10,78,60,46,56,51,46,100,76,45,30.07,29.87,5,1,12,0.00
2014-3-11,81,62,45,60,54,45,100,78,45,29.92,29.74,8,1,14,0.00
2014-3-12,75,64,53,65,58,42,100,83,61,29.78,29.49,10,2,21,0.31
2014-3-13,57,47,35,40,30,27,95,56,32,30.26,29.76,6,2,18,0.00
2014-3-14,64,46,28,45,37,28,100,76,34,30.37,30.19,11,1,12,0.00
2014-3-15,65,53,44,53,48,42,100,86,58,30.19,30.03,4,0,6,0.00
2014-3-16,68,57,49,64,56,49,100,99,87,30.06,29.75,5,0,11,0.47
2014-3-17,58,50,41,58,50,41,100,100,100,29.86,29.67,5,1,9,0.21
2014-3-18,48,41,37,46,41,37,100,98,91,30.14,29.80,6,1,14,0.29
2014-3-19,62,48,42,55,47,42,100,95,75,30.20,30.04,5,0,7,0.01
2014-3-20,76,57,41,58,49,41,100,79,38,30.09,29.95,5,0,12,0.01
2014-3-21,73,54,37,50,43,37,100,72,34,30.18,30.05,4,0,9,0.00
2014-3-22,75,60,46,66,57,46,100,92,71,30.11,29.97,9,1,11,0.00
2014-3-23,60,58,56,60,58,56,100,100,100,30.02,29.95,0,0,0,0.00
2014-3-24,61,52,42,44,41,38,94,68,46,30.22,30.05,5,1,10,0.00
2014-3-25,63,49,42,55,42,25,100,79,40,30.07,29.75,7,1,17,0.20
2014-3-26,57,42,28,33,27,23,96,60,29,30.34,30.08,7,1,10,0.00
2014-3-27,67,48,29,52,42,29,100,83,53,30.45,30.30,9,1,11,0.00
2014-3-28,73,58,45,67,57,45,100,96,75,30.29,30.06,6,0,13,0.12
2014-3-29,79,68,61,70,64,56,100,87,66,30.05,29.69,6,1,17,0.36
2014-3-30,70,56,44,54,41,33,86,61,27,30.05,29.78,9,2,22,0.00
2014-3-31,79,55,34,49,40,34,100,66,24,30.16,30.05,4,0,8,0.00
2014-4-1,83,61,41,53,47,41,100,67,29,30.18,30.07,7,1,11,0.00
2014-4-2,86,65,45,60,52,45,100,68,30,30.18,30.06,6,1,11,0.00
2014-4-3,85,68,53,65,58,53,100,75,42,30.13,29.98,7,1,13,0.00
2014-4-4,84,70,58,65,62,58,100,77,50,30.01,29.88,9,2,20,0.00
2014-4-5,82,70,60,65,63,60,100,81,55,30.00,29.91,8,1,11,0.00
2014-4-6,63,59,53,62,58,53,100,97,86,30.10,29.96,2,0,6,0.06
2014-4-7,74,62,52,71,61,52,100,98,86,30.02,29.76,5,1,12,0.96
2014-4-8,72,64,56,66,61,54,100,91,64,29.77,29.61,7,1,12,1.33
2014-4-9,74,60,49,54,50,46,99,74,41,30.13,29.71,4,0,10,0.00
2014-4-10,78,59,42,55,47,42,100,72,34,30.29,30.13,9,1,11,0.00
2014-4-11,78,62,47,62,54,47,100,79,48,30.31,30.15,6,1,13,0.00
2014-4-12,83,66,52,66,58,52,100,81,51,30.24,30.14,7,1,10,0.00
2014-4-13,81,65,53,68,60,53,100,85,52,30.22,30.10,7,1,12,0.00
2014-4-14,80,69,58,71,66,59,100,91,64,30.10,29.84,10,1,13,0.00
2014-4-15,72,66,52,72,66,50,100,98,90,29.95,29.64,11,1,15,0.35
2014-4-16,63,50,39,51,41,35,98,72,45,30.36,29.96,5,1,17,0.35
2014-4-17,72,54,42,56,48,39,98,80,56,30.45,30.30,5,1,8,0.00
2014-4-18,63,56,52,59,55,52,100,96,78,30.33,29.97,7,1,14,2.03
2014-4-19,59,56,52,59,56,52,100,100,100,30.07,29.93,5,1,10,2.13
2014-4-20,69,58,50,59,54,50,100,89,68,30.14,30.04,6,1,15,0.00
2014-4-21,78,63,50,59,54,50,100,75,42,30.12,29.96,4,1,10,0.00
2014-4-22,83,64,46,65,57,46,100,82,50,29.96,29.74,7,1,11,0.00
2014-4-23,85,69,57,68,62,57,100,81,42,29.92,29.78,5,1,11,0.01
2014-4-24,79,64,50,65,58,50,100,84,58,30.05,29.92,5,0,8,0.00
2014-4-25,83,70,57,70,64,57,100,85,54,29.97,29.80,9,1,16,0.00
2014-4-26,82,66,54,65,59,54,100,80,47,30.04,29.88,4,0,8,0.00
2014-4-27,86,68,51,70,61,51,100,83,48,30.05,29.92,5,0,11,0.00
2014-4-28,87,74,64,74,70,64,100,88,64,29.98,29.85,7,1,13,0.00
2014-4-29,82,75,66,76,73,67,100,93,78,29.99,29.85,7,1,19,0.00
2014-4-30,78,73,67,75,71,67,100,96,85,30.05,29.91,7,1,15,0.13
2014-5-1,78,68,62,70,67,62,100,97,75,29.98,29.89,4,0,11,0.03
2014-5-2,66,62,58,62,60,58,100,94,79,29.97,29.90,1,0,5,0.00
2014-5-3,79,64,52,61,57,52,100,80,40,30.00,29.91,4,0,8,0.00
2014-5-4,87,67,48,64,55,48,100,72,38,30.06,29.94,5,1,7,0.00
2014-5-5,93,73,55,67,62,55,100,72,37,30.01,29.88,4,0,9,0.00
2014-5-6,91,74,60,70,64,59,99,75,42,29.99,29.90,7,1,11,0.00
2014-5-7,92,73,56,69,63,56,100,76,41,30.14,29.99,5,0,8,0.00
2014-5-8,91,73,57,74,66,57,100,82,47,30.24,30.13,8,1,12,0.00
2014-5-9,88,75,64,74,70,64,100,85,58,30.21,30.10,5,1,9,0.00
2014-5-10,84,76,69,73,71,69,100,87,64,30.16,30.05,9,1,18,0.00
2014-5-11,87,74,65,78,71,65,100,91,63,30.16,30.08,3,0,8,0.18
2014-5-12,90,74,63,76,70,63,100,87,60,30.21,30.11,8,0,10,0.00
2014-5-13,87,74,63,75,69,63,100,87,61,30.18,30.11,6,0,8,0.00
2014-5-14,84,72,60,75,69,60,100,89,68,30.15,30.05,9,1,13,0.00
2014-5-15,78,74,64,76,73,65,100,98,90,30.05,29.84,11,1,13,0.42
2014-5-16,76,63,51,64,56,51,100,80,47,30.10,29.91,5,1,12,0.01
2014-5-17,79,61,44,60,52,44,100,76,41,30.22,30.10,4,0,9,0.00
2014-5-18,76,62,49,65,58,49,100,87,63,30.21,30.15,3,0,5,0.00
2014-5-19,77,64,53,63,59,53,100,85,57,30.27,30.19,5,0,8,0.05
2014-5-20,80,63,47,64,56,47,100,80,48,30.30,30.18,6,0,9,0.00
2014-5-21,90,72,54,72,64,54,100,80,52,30.19,30.02,6,0,14,0.00
2014-5-22,93,77,63,73,68,63,100,77,45,30.05,29.92,5,0,14,0.00
2014-5-23,96,79,63,77,71,63,100,80,46,30.01,29.92,3,0,7,0.00
2014-5-24,89,74,64,71,66,62,100,79,47,30.10,29.96,3,0,7,0.00
2014-5-25,83,71,63,74,67,63,100,90,65,30.21,30.08,3,0,9,0.04
2014-5-26,84,72,62,76,69,63,100,91,66,30.24,30.13,8,1,13,0.03
2014-5-27,85,74,63,76,71,63,100,90,70,30.18,30.03,5,1,11,0.00
2014-5-28,90,75,66,78,72,66,100,90,57,30.08,29.98,4,0,9,0.61
2014-5-29,91,75,64,79,71,64,100,87,58,30.08,29.96,3,0,9,0.00
2014-5-30,87,73,66,76,71,66,100,93,70,30.08,30.00,0,0,0,0.00
2014-5-31,84,72,66,78,71,66,100,97,80,30.14,30.05,0,0,0,0.04
2014-6-1,82,72,59,69,65,57,100,81,54,30.26,30.13,0,0,0,0.01
2014-6-2,83,69,56,72,64,56,100,86,64,30.26,30.14,0,0,0,0.00
2014-6-3,86,72,61,73,67,61,100,85,58,30.15,29.99,0,0,0,0.00
2014-6-4,90,77,65,76,70,65,100,83,60,30.00,29.86,0,0,0,0.00
2014-6-5,92,79,71,79,73,68,100,81,61,29.91,29.79,6,0,10,0.00
2014-6-6,91,76,68,80,74,68,100,94,69,29.95,29.84,4,0,6,0.99
2014-6-7,85,73,67,79,72,67,100,98,80,29.98,29.87,3,0,7,1.13
2014-6-8,80,73,67,78,72,67,100,99,88,29.99,29.88,2,0,9,2.45
2014-6-9,93,80,70,82,76,70,100,89,65,29.96,29.84,5,0,8,0.01
2014-6-10,96,82,73,81,77,73,100,85,55,29.98,29.91,5,1,10,0.00
2014-6-11,90,78,67,78,73,67,100,86,63,29.98,29.86,7,0,11,0.00
2014-6-12,88,76,68,78,73,68,100,91,64,29.95,29.84,6,0,11,0.18
2014-6-13,90,77,67,78,73,67,100,88,61,29.92,29.84,4,0,10,0.00
2014-6-14,90,78,70,78,74,71,100,89,63,30.04,29.92,3,0,7,0.05
2014-6-15,92,77,67,80,74,67,100,93,64,30.14,30.02,3,0,6,0.22
2014-6-16,90,78,70,81,75,70,100,90,67,30.18,30.11,4,0,9,0.00
2014-6-17,92,77,67,79,72,67,100,87,60,30.21,30.11,3,0,8,0.00
2014-6-18,92,76,64,78,71,64,100,86,59,30.18,30.10,3,0,7,0.00
2014-6-19,94,78,65,78,72,65,100,85,53,30.16,30.04,5,0,7,0.00
2014-6-20,96,80,68,83,74,68,100,86,57,30.06,29.93,4,0,9,0.00
2014-6-21,97,81,70,82,75,70,100,83,55,29.98,29.78,4,0,8,0.00
2014-6-22,92,78,69,81,74,69,100,89,68,29.93,29.80,2,0,6,0.00
2014-6-23,90,75,69,81,74,69,100,97,72,30.08,29.91,1,0,5,0.46
2014-6-24,88,77,69,80,75,69,100,92,74,30.11,30.00,5,1,12,0.01
2014-6-25,92,80,71,80,76,71,100,88,65,30.08,29.93,4,0,10,0.00
2014-6-26,95,82,72,80,76,72,100,84,54,30.03,29.91,1,0,6,0.00
2014-6-27,90,79,70,80,75,70,100,88,66,30.04,29.96,0,0,0,0.00
2014-6-28,91,79,72,80,76,72,100,92,66,30.16,30.03,0,0,1,0.00
2014-6-29,89,76,70,81,75,70,100,96,75,30.17,30.09,1,0,4,0.50
2014-6-30,92,77,67,81,74,67,100,89,64,30.12,29.97,0,0,1,0.01
2014-7-1,94,79,68,80,74,68,100,85,59,30.01,29.92,0,0,3,0.00
2014-7-2,93,80,70,82,76,70,100,87,61,29.99,29.93,4,0,8,0.00
2014-7-3,92,80,73,81,77,73,100,90,67,29.95,29.84,5,0,11,0.00
2014-7-4,95,80,69,78,72,68,100,80,41,30.10,29.94,0,0,2,0.00
2014-7-5,86,75,66,78,72,66,100,92,77,30.18,30.09,0,0,2,0.00
2014-7-6,87,75,69,79,73,69,100,94,73,30.15,30.05,0,0,2,0.01
2014-7-7,93,78,66,80,74,66,100,88,65,30.09,29.98,0,0,2,0.00
2014-7-8,96,82,70,80,76,70,100,83,50,30.09,29.98,0,0,0,0.00
2014-7-9,96,83,72,79,76,72,100,83,54,30.06,29.97,0,0,0,0.00
2014-7-10,93,80,71,80,76,71,100,88,60,30.10,30.00,2,0,10,0.05
2014-7-11,89,76,69,79,74,69,100,93,69,30.18,30.08,1,0,5,0.00
2014-7-12,86,76,71,79,74,71,100,95,81,30.22,30.12,0,0,0,0.05
2014-7-13,88,75,68,80,74,68,100,95,74,30.17,30.05,0,0,0,0.12
2014-7-14,93,80,73,82,77,73,100,92,65,30.07,29.93,6,0,9,0.03
2014-7-15,91,78,72,82,76,72,100,93,72,29.97,29.81,10,0,16,0.95
2014-7-16,92,79,72,80,76,72,100,91,62,29.90,29.82,0,0,0,0.00
2014-7-17,92,78,68,79,74,68,100,87,59,30.05,29.89,0,0,0,0.00
2014-7-18,91,77,67,75,72,67,100,84,57,30.13,30.05,0,0,0,0.00
2014-7-19,87,75,66,79,73,66,100,94,73,30.12,30.05,0,0,0,0.00
2014-7-20,89,76,69,81,75,69,100,97,77,30.08,30.01,0,0,0,0.57
2014-7-21,83,74,71,82,74,71,100,100,94,30.11,30.02,0,0,0,0.43
2014-7-22,72,72,71,72,72,71,100,100,100,30.06,30.04,0,0,0,0.00
2014-7-25,77,73,71,77,73,71,100,100,100,30.06,29.96,4,0,15,0.39
2014-7-26,91,79,69,85,78,69,100,94,74,30.04,29.96,1,0,5,0.10
2014-7-27,96,83,74,82,78,74,100,87,63,30.00,29.90,6,0,9,0.00
2014-7-28,94,83,76,85,80,76,100,91,72,29.90,29.80,3,0,13,0.00
2014-7-29,93,78,65,76,72,65,100,83,51,29.95,29.84,0,0,5,0.00
2014-7-30,90,76,66,79,72,66,100,88,60,30.02,29.93,2,0,8,0.00
2014-7-31,80,74,71,78,74,71,100,99,90,30.07,29.99,2,0,8,1.36
2014-8-1,89,77,71,82,76,71,100,95,75,30.05,29.97,2,0,5,0.01
2014-8-2,84,76,72,80,75,72,100,98,84,30.07,29.99,1,0,6,0.02
2014-8-3,85,76,72,80,75,72,100,97,81,30.09,29.99,0,0,0,0.84
2014-8-4,84,75,70,79,74,70,100,98,85,30.04,29.98,1,0,3,0.06
2014-8-5,94,79,70,81,75,70,100,90,63,30.04,29.95,0,0,0,0.00
2014-8-6,95,80,70,80,74,70,100,85,51,30.02,29.93,1,0,3,0.00
2014-8-7,98,81,69,83,76,69,100,86,56,29.98,29.90,1,0,4,0.00
2014-8-8,94,78,71,84,76,71,100,94,70,30.09,29.95,7,0,7,0.05
2014-8-9,94,78,71,83,76,71,100,93,69,30.05,29.94,0,0,2,0.31
2014-8-10,91,76,70,83,75,70,100,96,74,30.04,29.95,0,0,1,0.37
2014-8-11,88,77,73,82,77,73,100,98,80,30.00,29.90,0,0,1,0.15
2014-8-12,91,78,72,83,77,72,100,95,74,29.92,29.83,0,0,0,0.01
2014-8-13,93,81,73,82,77,73,100,90,64,29.94,29.86,0,0,0,0.00
2014-8-14,90,77,68,77,72,68,100,86,60,30.04,29.94,0,0,0,0.00
2014-8-15,91,75,67,80,73,67,100,94,67,30.04,29.95,3,0,8,0.72
2014-8-16,94,80,70,83,76,70,100,90,58,30.04,29.96,0,0,0,0.00
2014-8-17,95,81,70,81,76,70,100,85,53,30.05,29.96,0,0,1,0.00
2014-8-18,94,82,73,82,78,73,100,89,67,29.98,29.82,0,0,2,0.05
2014-8-19,91,78,70,81,76,70,100,92,70,29.93,29.85,5,0,11,0.01
2014-8-20,97,82,71,82,77,71,100,88,58,30.04,29.91,0,0,0,0.00
2014-8-21,99,82,70,83,77,70,100,86,56,30.09,30.01,0,0,0,0.00
2014-8-22,101,83,71,84,78,71,100,85,51,30.06,29.93,0,0,0,0.00
2014-8-23,101,84,73,83,78,73,100,84,51,29.95,29.82,0,0,0,0.00
2014-8-24,88,80,73,78,75,70,100,87,68,29.99,29.84,0,0,0,0.00
2014-8-25,86,74,63,74,69,63,100,83,63,30.03,29.97,0,0,0,0.00
2014-8-26,90,76,65,74,70,65,100,83,55,30.06,30.00,0,0,0,0.00
2014-8-27,91,73,60,72,67,60,100,83,50,30.05,29.96,0,0,0,0.00
2014-8-28,94,74,59,75,67,59,100,82,42,30.06,29.98,0,0,0,0.00
2014-8-29,94,76,62,80,70,62,100,85,51,30.12,30.02,0,0,0,0.00
2014-8-30,93,77,66,82,74,66,100,89,62,30.19,30.09,0,0,0,0.00
2014-8-31,96,80,68,82,75,68,100,88,57,30.17,30.05,0,0,0,0.00
2014-9-1,97,82,72,82,77,72,100,87,54,30.13,30.03,0,0,0,0.00
2014-9-2,95,79,71,83,76,71,100,93,64,30.09,29.98,0,0,0,0.07
2014-9-3,92,78,69,80,75,69,100,90,64,30.10,30.00,0,0,0,0.00
2014-9-4,90,78,69,82,75,69,100,92,67,30.15,30.08,0,0,2,0.12
2014-9-5,87,77,70,81,75,70,100,95,77,30.16,30.05,0,0,1,0.18
2014-9-6,84,76,71,83,75,71,100,98,87,30.07,29.93,0,0,0,0.83
2014-9-7,86,78,72,81,76,72,100,94,78,30.00,29.91,0,0,2,0.01
2014-9-8,82,75,72,81,75,73,100,100,94,30.07,29.96,1,0,1,0.36
2014-9-9,82,74,69,78,73,69,100,97,83,30.12,30.03,0,0,0,0.00
2014-9-10,87,76,70,79,74,70,100,94,73,30.11,30.02,0,0,0,0.00
2014-9-11,93,78,68,81,75,68,100,90,66,30.07,29.96,0,0,0,0.00
2014-9-12,93,78,71,83,75,71,100,92,64,30.05,29.96,0,0,0,0.22
2014-9-13,91,79,72,83,76,72,100,93,69,30.11,30.00,0,0,0,0.88
2014-9-14,88,76,72,82,75,72,100,97,79,30.19,30.08,0,0,0,0.25
2014-9-15,88,74,70,80,73,70,100,96,74,30.20,30.09,0,0,0,1.26
2014-9-16,90,75,69,82,74,69,100,96,72,30.11,29.93,0,0,0,0.03
2014-9-17,88,74,66,80,72,66,100,96,73,29.95,29.84,0,0,0,0.12
2014-9-18,87,73,64,78,71,64,100,92,69,29.99,29.89,0,0,0,0.01
2014-9-19,84,71,66,77,70,67,100,96,71,30.10,29.98,0,0,0,0.47
2014-9-20,72,68,65,71,68,65,100,99,95,30.10,29.95,0,0,0,0.04
2014-9-21,88,72,60,76,68,60,100,88,59,30.00,29.89,0,0,0,0.00
2014-9-22,90,71,63,77,68,63,100,92,64,30.13,29.94,0,0,0,0.34
2014-9-23,69,64,59,69,64,59,100,99,96,30.19,30.03,0,0,1,0.07
2014-9-24,64,60,57,64,60,57,100,100,100,30.20,30.14,1,0,2,0.31
2014-9-25,73,67,62,73,67,62,100,100,97,30.18,30.09,0,0,2,0.04
2014-9-26,75,69,65,72,68,65,100,98,88,30.14,30.07,0,0,2,0.00
2014-9-27,81,70,64,75,69,65,100,96,81,30.12,30.06,0,0,1,0.04
2014-9-28,78,72,68,76,71,68,100,99,93,30.11,30.02,0,0,1,0.13
2014-9-29,71,68,65,71,68,65,100,100,100,30.02,29.91,0,0,1,0.33
2014-9-30,83,70,62,72,67,62,100,92,64,29.92,29.84,0,0,0,0.02
2014-10-1,86,70,58,74,66,58,100,90,62,30.04,29.89,0,0,0,0.00
2014-10-2,86,70,58,76,67,58,100,91,64,30.12,30.03,0,0,1,0.00
2014-10-3,83,70,60,78,69,60,100,96,80,30.07,29.85,0,0,1,0.13
2014-10-4,77,67,52,70,59,46,100,78,39,29.95,29.77,6,0,10,0.01
2014-10-5,71,54,40,54,47,40,100,81,40,30.07,29.94,2,0,5,0.00
2014-10-6,77,59,43,62,52,43,100,84,43,30.15,30.06,4,0,8,0.00
2014-10-7,82,65,52,72,62,53,100,92,63,30.15,30.05,3,0,7,0.00
2014-10-8,88,72,60,77,69,60,100,91,69,30.14,30.01,6,0,9,0.00
2014-10-9,85,71,60,71,66,60,100,87,58,30.15,30.05,3,0,4,0.00
2014-10-10,88,72,57,76,68,57,100,89,65,30.12,30.02,3,0,6,0.00
2014-10-11,90,74,61,77,70,61,100,90,62,30.08,29.96,4,0,7,0.00
2014-10-12,88,74,65,77,71,65,100,92,62,30.15,30.01,2,0,5,0.00
2014-10-13,87,74,67,79,72,67,100,94,72,30.18,30.08,4,0,13,0.01
2014-10-14,84,73,66,78,72,66,100,96,80,30.07,29.89,4,0,13,0.36
2014-10-15,75,67,56,72,64,56,100,91,61,29.93,29.85,5,0,8,0.17
2014-10-16,73,59,51,62,56,51,100,90,64,29.93,29.83,5,0,11,0.00
2014-10-17,78,59,45,65,56,45,100,90,61,30.00,29.88,3,0,7,0.00
2014-10-18,83,65,53,68,60,53,100,87,52,29.91,29.79,6,0,9,0.00
2014-10-19,71,59,48,59,54,48,100,85,58,30.13,29.91,2,0,8,0.00
2014-10-20,77,59,43,66,56,43,100,90,63,30.15,29.98,4,0,11,0.00
2014-10-21,79,64,54,65,60,54,100,87,55,29.99,29.86,3,0,7,0.00
2014-10-22,70,55,45,55,50,45,100,86,53,30.08,29.93,3,0,11,0.00
2014-10-23,71,52,38,56,48,38,100,87,55,30.12,29.99,2,0,5,0.00
2014-10-24,75,54,40,59,50,40,100,88,54,30.09,29.97,2,0,4,0.00
2014-10-25,75,56,41,62,51,41,100,86,49,30.05,29.95,2,0,4,0.00
2014-10-26,85,61,44,68,56,44,100,88,53,29.98,29.89,1,0,4,0.00
2014-10-27,87,64,48,69,60,48,100,88,48,30.11,29.97,3,0,7,0.00
2014-10-28,83,67,56,73,63,56,100,90,58,30.18,30.09,3,0,8,0.00
2014-10-29,81,68,59,71,65,59,100,91,63,30.11,29.95,5,0,9,0.00
2014-10-30,74,64,51,64,60,51,100,89,62,30.00,29.91,2,0,5,0.00
2014-10-31,70,56,46,60,52,46,100,88,55,29.93,29.78,2,0,8,0.29
2014-11-1,50,44,38,50,43,36,100,97,86,30.08,29.73,7,1,17,0.10
2014-11-2,57,43,33,42,38,33,100,85,49,30.35,30.09,5,0,12,0.00
2014-11-3,66,43,28,45,37,29,100,82,38,30.49,30.35,2,0,4,0.00
2014-11-4,71,50,31,60,46,31,100,90,59,30.44,30.29,2,0,5,0.00
2014-11-5,76,61,48,70,58,48,100,93,71,30.32,30.19,3,0,7,0.00
2014-11-6,77,64,56,69,62,56,100,93,71,30.18,29.86,8,1,16,0.00
2014-11-7,65,52,38,58,45,38,100,78,48,30.05,29.89,5,0,7,0.00
2014-11-8,67,50,33,58,47,33,100,91,62,30.06,29.94,1,0,4,0.00
2014-11-9,66,55,46,59,54,46,100,94,77,30.02,29.90,3,0,4,0.01
2014-11-10,68,53,43,54,49,43,100,87,51,30.09,29.95,2,0,7,0.00
2014-11-11,77,62,51,68,58,50,100,90,71,29.97,29.87,3,0,8,0.00
2014-11-12,77,60,46,66,57,46,100,91,66,30.02,29.94,3,0,7,0.00
2014-11-13,71,60,51,63,56,46,100,90,74,30.05,29.95,3,0,7,0.00
2014-11-14,52,44,33,46,40,33,100,87,76,30.29,30.01,4,0,6,0.00
2014-11-15,53,39,30,37,31,25,100,77,47,30.43,30.27,2,0,7,0.00
2014-11-16,57,49,41,56,47,35,100,93,75,30.31,30.06,2,0,6,0.02
2014-11-17,74,60,44,71,59,41,100,98,85,30.04,29.73,6,1,17,0.10
2014-11-18,47,36,24,40,28,23,98,74,45,30.38,29.99,8,1,13,0.00
2014-11-19,28,21,18,27,21,18,100,99,96,30.46,30.37,0,0,2,0.00
2014-11-22,64,56,54,54,53,52,100,91,66,30.35,30.27,2,0,5,0.03
2014-11-23,68,61,53,69,61,53,100,100,100,30.25,29.79,5,1,19,2.10
2014-11-24,75,66,62,74,66,62,100,100,96,30.01,29.81,8,1,11,0.41
2014-11-25,63,61,57,63,61,57,100,100,100,30.10,29.87,1,0,6,1.55
2014-11-26,58,51,39,58,50,39,100,99,89,30.14,29.81,6,1,11,0.48
2014-11-27,55,44,35,42,39,35,100,84,52,30.31,30.10,7,1,13,0.01